Regional Weather Roundup
Issued by NWS

Home | Current Version | Previous Version | Text Only | Print | Product List | Glossary On
Versions: 1 2 3 4 5 6 7 8 9 10 11 12 13 14 15 16 17 18 19 20 21 22 23 24 25 26 27 28 29 30 31 32 33 34 35 36 37 38 39 40 41 42 43 44 45 46 47 48 49 50
000
ASUS43 KLOT 291408
RWRIL

ILLINOIS REGIONAL WEATHER ROUNDUP
NATIONAL WEATHER SERVICE CHICAGO/ROMEOVILLE IL
900 AM CDT FRI MAY 29 2020

NOTE: "FAIR" INDICATES FEW OR NO CLOUDS BELOW 12,000 FEET WITH NO
SIGNIFICANT WEATHER AND/OR OBSTRUCTIONS TO VISIBILITY.

* THESE STATIONS ARE NOT UNDER NWS QUALITY CONTROL. THEY ALSO MAY NOT
  REPORT WEATHER SUCH AS PRECIPITATION OR FOG.

ILZ001-002-007-009-015-016-024-291500-
NORTHWEST ILLINOIS

CITY           SKY/WX    TMP DP  RH WIND       PRES   REMARKS
MOLINE         SUNNY     67  51  56 NW13G21   30.02R
STERLING*      SUNNY     66  55  67 NW10      30.00R
SAVANNA*       SUNNY     63  50  63 N8        30.01R
$$

ILZ003-004-008-010-011-017-018-291500-
NORTH CENTRAL ILLINOIS

CITY           SKY/WX    TMP DP  RH WIND       PRES   REMARKS
ROCKFORD       SUNNY     65  52  62 N12       29.99R
FREEPORT*      SUNNY     62  52  69 NW13      30.01R
ROCHELLE*      SUNNY     64  54  72 NW12      29.99S
DE KALB*       MOSUNNY   64  58  79 NW7       29.98S
PERU*          SUNNY     66  56  68 NW13        N/A
$$

ILZ005-006-012>014-019>023-291500-
NORTHEAST ILLINOIS

CITY           SKY/WX    TMP DP  RH WIND       PRES   REMARKS
CHICAGO-OHARE  MOSUNNY   64  53  67 W9        29.94S
CHICAGO-MIDWAY MOSUNNY   66  55  67 W7        29.95S
AURORA         MOSUNNY   67  54  63 W8        29.96S
JOLIET*        SUNNY     67  56  66 SW3       29.97S
WAUKEGAN       SUNNY     67  55  65 VRB6      29.93S
DUPAGE AIRPORT PTSUNNY   66  54  65 SW8       29.95S
KANKAKEE*      PTSUNNY   63  54  72 NW3       29.99R
WHEELING       MOSUNNY   68  55  63 W8        29.95F
MORRIS*        SUNNY     67  54  64 W5        29.96S
ROMEOVILLE*    SUNNY     66  55  69 SW8       29.97R
NORTHERLY ISL    N/A     64  56  75 SE5         N/A
$$

LMZ740>746-291500-
SOUTHERN LAKE MICHIGAN

STATION/POSITION SKY/WX   TEMP    WIND        PRES    VSBY  WAVE
                          AIR SEA DIR/SP/G                  HT/PER
                          (F)     (DEG/KT/KT) (MB)    (MI)  (FT/S)
HARRISON CRIB              59     170/ 13/ 14   N/A
NORTHERLY ISL              64     150/  3/  6   N/A
CALUMET HARBOR             59     210/  4/  5 1013.8
MICHIGAN CITY              59     190/  2/  3   N/A
$$

ILZ025>027-034>036-040-047-049-050-058-095>099-291500-
WEST-CENTRAL ILLINOIS

CITY           SKY/WX    TMP DP  RH WIND       PRES   REMARKS
QUINCY         SUNNY     65  52  62 NW13      30.06R
GALESBURG*     SUNNY     65  51  60 NW9       30.04S
MACOMB*        SUNNY     65  53  65 NW16      30.06R
JACKSONVILLE*  SUNNY     66  56  71 NW10      30.02S
PITTSFIELD*    SUNNY     67  56  67 NW7       30.06R
$$

ILZ028>032-037-038-041>044-048-051>054-059>061-291500-
CENTRAL ILLINOIS

CITY           SKY/WX    TMP DP  RH WIND       PRES   REMARKS
PONTIAC        SUNNY     68  54  61 CALM      29.99S
BLOOMINGTON    SUNNY     69  55  60 W3        30.00S
DECATUR        PTSUNNY   67  60  78 NW7       29.99R
PEORIA         SUNNY     67  53  61 N10G18    30.00R
LACON*         SUNNY     66  55  67 NW10      29.99R
LINCOLN*       MOSUNNY   71  59  66 CALM      29.99S
SPRINGFIELD    SUNNY     70  63  78 W10       30.00S
TAYLORVILLE    PTSUNNY   66  63  88 NW9       30.01S
$$

ILZ033-039-045-046-055>057-062-063-291500-
EAST-CENTRAL ILLINOIS

CITY           SKY/WX    TMP DP  RH WIND       PRES   REMARKS
CHAMPAIGN      CLOUDY    64  58  80 NW9       30.00R
DANVILLE*      CLOUDY    64  62  96 NW5       29.99R
RANTOUL*       DRIZZLE   62  61  96 NW5       29.99R
MATTOON        CLOUDY    66  62  87 N12       29.98R
PARIS*         CLOUDY    66  63  87 CALM      29.99R
$$

ILZ079-100>102-291500-
SOUTHWEST ILLINOIS

CITY           SKY/WX    TMP DP  RH WIND       PRES   REMARKS
ALTON          SUNNY     68  66  94 NW6       30.02S
BELLEVILLE     MOSUNNY   68  67  99 NW9       30.01R
CAHOKIA*       SUNNY     69  64  84 NW9       30.02S
SPARTA*        CLOUDY    64  62  91 NW8       30.03R
$$

ILZ064>066-069>071-074>076-080>082-084>086-088>090-092>094-291500-
SOUTH-CENTRAL ILLINOIS

CITY           SKY/WX    TMP DP  RH WIND       PRES   REMARKS
CARBONDALE     CLOUDY    68  63  84 NW5       30.01R
CAIRO*         CLOUDY    68  65  90 N3        30.02S
EFFINGHAM*     RAIN      65  63  96 W3        30.01S
MARION         CLOUDY    68  64  88 NW6       30.01R
MT. VERNON     CLOUDY    66  64  93 CALM      30.00S
CENTRALIA*     LGT RAIN  65  65  99 N7        30.00S
SALEM*         CLOUDY    67  62  84 N12       30.01R
METROPOLIS*    RAIN     N/A N/A N/A SW5       30.02R
$$

ILZ067-068-072-073-078-083-087-091-291500-
SOUTHEAST ILLINOIS

CITY           SKY/WX    TMP DP  RH WIND       PRES   REMARKS
LAWRENCEVILLE  CLOUDY   N/A N/A N/A VRB3      29.97R
FAIRFIELD*     HVY RAIN  65  65 100 CALM      29.99R
HARRISBURG*    CLOUDY    69  68  96 W6        30.00S
ROBINSON*      CLOUDY    67  64  91 N3        29.98R
CARMI*         CLOUDY    70  64  83 N7        29.99R
$$

ABBREVIATIONS USED IN REMARKS
   TC - TEMPERATURE IN CELSIUS
  WCI - WIND CHILL INDEX
   HX - HEAT INDEX
  VSB - VISIBILITY
$$





USA.gov is the U.S. government's official web portal to all federal, state and local government web resources and services.